Flag for Greece Weather past 2 weeks in Iráklion, Crete, Greece

Now
82 °F

Passing clouds.


Feels Like: 87 °F
Forecast: 72 / 87 °F
Wind: 8 mph from North

Location: Heraklion Airport

Current Time: Sep 1, 2014 at 5:38:50 PM

Latest Report: Sep 1, 2014 at 4:50 PM


Visibility: N/A

Pressure: 29.77 "Hg

Humidity: 70%

Dew point: 72 °F

Location of IráklionLocation

Historic Weather in Iráklion — Graph

°F

Iráklion temperature yesterday

Maximum temperature yesterday: 82 °F (at 2:50 PM)
Minimum temperature yesterday: 75 °F (at 1:50 AM)
Average temperature yesterday: 78 °F

Past Weeks' High & Low Weather Summary

 TemperatureHumidityPressure
High90 °F (Aug 21, 11:50 AM)89% (Aug 20, 10:50 PM)29.98 "Hg (Aug 20, 10:50 PM)
Low70 °F (Aug 21, 2:50 AM)12% (Aug 27, 2:50 AM)29.68 "Hg (Aug 17, 4:50 PM)
Average80 °F64%29.86 "Hg
* Reported Aug 17 4:50 PM — Sep 1 4:20 PM, Iráklion, Weather by CustomWeather, © 2014

Note: Actual official high and low records may vary slightly from our data, if they occured in-between our weather recording intervals... More about our weather records

Advertising

Iráklion weather history for previous 24 hours

 ConditionsComfort  
Time TempWeatherWind HumidityBarometerVisibility
4:20 PM
Sep 1
82 °FPassing clouds.7 mph70%29.77 "HgN/A
3:50 PM82 °FPassing clouds.7 mph70%29.77 "HgN/A
3:20 PM84 °FPassing clouds.8 mph70%29.80 "HgN/A
2:50 PM84 °FPassing clouds.8 mph70%29.80 "HgN/A
2:20 PM84 °FPassing clouds.12 mph66%29.80 "HgN/A
1:50 PM84 °FPassing clouds.14 mph66%29.80 "HgN/A
1:20 PM82 °FPassing clouds.13 mph70%29.80 "HgN/A
12:50 PM82 °FPassing clouds.13 mph70%29.80 "HgN/A
12:20 PM82 °FPassing clouds.14 mph70%29.80 "HgN/A
11:50 AM82 °FPassing clouds.13 mph70%29.80 "HgN/A
11:20 AM82 °FPassing clouds.15 mph70%29.80 "HgN/A
10:50 AM82 °FPassing clouds.13 mph70%29.80 "HgN/A
10:20 AM81 °FPassing clouds.13 mph70%29.80 "HgN/A
9:50 AM81 °FPassing clouds.13 mph70%29.80 "HgN/A
9:20 AM79 °FPassing clouds.10 mph74%29.80 "HgN/A
8:50 AM79 °FPassing clouds.10 mph74%29.80 "HgN/A
8:20 AM77 °FPassing clouds.12 mph74%29.80 "HgN/A
7:50 AM77 °FPassing clouds.10 mph74%29.80 "HgN/A
7:20 AM77 °FPassing clouds.12 mph79%29.80 "HgN/A
6:50 AM75 °FPassing clouds.10 mph78%29.80 "HgN/A
5:50 AM77 °FPassing clouds.13 mph79%29.80 "HgN/A
4:50 AM77 °FPassing clouds.13 mph74%29.80 "HgN/A
3:50 AM77 °FPassing clouds.12 mph74%29.80 "HgN/A
2:50 AM77 °FPassing clouds.10 mph69%29.80 "HgN/A
1:50 AM77 °FPassing clouds.12 mph65%29.83 "HgN/A
1:20 AM77 °FPassing clouds.12 mph69%29.83 "HgN/A
12:50 AM77 °FPassing clouds.13 mph69%29.83 "HgN/A
12:20 AM77 °FPassing clouds.13 mph74%29.86 "HgN/A
11:50 PM
Aug 31
77 °FPassing clouds.13 mph74%29.86 "HgN/A
11:20 PM77 °FPassing clouds.13 mph65%29.86 "HgN/A
10:50 PM77 °FPassing clouds.10 mph65%29.86 "HgN/A
10:20 PM75 °FPassing clouds.10 mph69%29.86 "HgN/A
9:50 PM75 °FPassing clouds.10 mph69%29.86 "HgN/A
9:20 PM77 °FPassing clouds.9 mph65%29.86 "HgN/A
8:50 PM77 °FPassing clouds.8 mph65%29.86 "HgN/A
8:20 PM77 °FPassing clouds.9 mph69%29.83 "HgN/A
7:50 PM77 °FPassing clouds.12 mph69%29.83 "HgN/A
7:20 PM81 °FPassing clouds.12 mph62%29.86 "HgN/A
6:50 PM81 °FPassing clouds.12 mph62%29.86 "HgN/A
6:20 PM81 °FPassing clouds.13 mph62%29.86 "HgN/A
5:50 PM81 °FPassing clouds.13 mph62%29.86 "HgN/A
5:20 PM82 °FPassing clouds.16 mph58%29.86 "HgN/A
Weather by CustomWeather, © 2014

See weather overviewHow to use our weather pages